Presure
168 157 181 119 172 163 170 166 150 156 170 139 167 150 161 174 173 171 159 162 166 173 173 164 170 173 173 168 151 172 183 189 158 177 173 165 178 186 187 197 200 204 211 213
137 169 152 169 170 175 165 160 139 149 152 156 160 164 160 169 163 163 166 167 169 162 168 171 172 174 170 173 164 191 170 175 182 191 176 171 182 191 198 209 204 197 215 217
169 132 148 160 151 159 120 156 164 141 129 156 146 157 121 161 160 159 165 164 160 170 156 155 161 167 163 144 172 165 177 179 182 173 184 158 204 193 196 203 211 211 207 222
150 131 151 165 128 135 167 143 157 161 122 128 146 165 147 164 159 162 154 156 159 167 163 161 170 171 171 171 178 179 167 168 191 189 194 179 183 187 199 200 207 219 219 214
199 182 171 173 172 187 162 171 157 132 150 144 165 181 161 104 144 179 142 178 172 171 170 187 158 177 176 163 180 191 190 189 193 174 173 174 196 191 202 204 215 233 221 223
149 113 164 123 160 144 178 170 167 165 165 164 152 170 139 143 156 150 190 175 178 156 171 165 186 166 178 179 172 187 195 183 187 185 190 186 188 192 198 212 219 220 218 253
211 177 181 199 192 197 156 175 164 190 165 170 175 169 179 168 165 136 159 189 192 181 187 164 162 164 203 154 182 172 176 191 202 193 199 208 205 199 207 213 234 213 234 265
245 206 202 208 180 218 131 143 172 162 172 193 145 177 169 169 163 166 182 179 154 182 163 159 175 147 167 182 185 194 181 167 184 181 190 193 200 205 218 236 203 221 252 272
215 247 230 218 214 219 211 199 184 182 186 177 180 206 168 186 169 180 185 174 173 169 175 175 167 179 175 182 182 167 188 189 193 199 188 208 209 217 226 229 234 229 262 276
189 207 202 270 218 214 183 217 201 192 186 203 179 153 188 194 193 174 187 179 182 181 182 175 179 186 173 167 167 190 174 181 184 198 201 206 207 217 224 225 231 265 275 283
190 184 195 190 200 238 211 208 181 198 211 211 202 176 174 166 174 178 185 174 179 179 176 166 167 170 173 185 189 180 189 183 196 195 202 206 220 218 220 236 263 272 279 285
205 210 206 210 185 199 231 173 213 207 204 206 204 203 203 135 199 200 192 192 189 180 137 191 190 195 192 168 177 187 178 194 194 206 210 217 211 221 222 231 270 274 291 288
203 223 192 216 194 228 184 186 202 218 205 208 208 205 179 204 209 207 210 136 203 201 191 172 188 184 184 186 190 181 195 203 205 196 218 218 220 211 226 271 271 289 287 292
226 220 229 205 180 170 255 179 192 139 199 201 208 205 205 206 206 205 211 212 156 175 198 201 196 202 186 185 195 197 203 206 201 212 217 213 230 220 230 263 279 286 286 280
261 275 209 205 268 233 226 248 206 215 215 210 208 213 215 210 210 213 216 218 201 208 201 200 205 196 201 191 201 209 207 205 208 218 212 211 211 230 267 281 289 280 284 304
374 323 304 286 249 247 184 257 222 217 222 210 203 211 205 210 215 212 209 169 214 211 203 214 201 201 207 205 207 203 212 211 220 220 219 253 247 276 283 291 281 282 274 295
326 417 405 334 299 310 288 268 237 234 218 217 210 204 213 220 220 209 204 213 219 212 210 213 213 211 201 210 201 210 213 212 210 216 240 218 227 286 285 281 286 273 310 274
373 321 378 187 384 180 298 252 264 238 243 226 212 208 217 221 221 223 219 210 215 208 200 199 196 209 206 206 209 211 202 216 226 225 230 271 271 279 283 282 281 292 285 454
354 294 347 336 313 253 228 264 250 243 235 165 228 236 224 220 219 215 213 217 207 203 201 205 200 206 213 206 218 218 222 220 222 241 250 274 281 286 271 285 263 313 284 435
327 309 329 335 293 221 273 268 249 246 237 233 233 236 233 229 223 219 218 219 217 213 214 209 210 221 211 224 212 221 212 222 235 257 279 284 285 270 271 266 300 277 438 424
326 325 176 335 169 202 245 259 261 252 237 242 236 241 234 235 233 232 230 225 221 206 221 225 234 216 229 207 227 219 231 256 265 269 279 284 271 272 278 272 293 322 433 416
318 308 208 332 283 274 261 253 209 181 194 244 244 240 237 236 236 237 237 225 228 226 218 215 225 227 233 223 217 225 256 267 278 280 281 268 275 281 260 318 279 415 433 418
311 314 315 328 322 270 248 220 253 257 252 241 243 235 240 239 231 228 223 224 227 229 230 233 234 230 223 218 244 258 266 275 281 279 268 274 276 256 311 276 406 407 434 416
298 306 313 319 337 369 262 266 257 248 155 240 236 245 241 243 233 230 228 232 238 237 231 234 236 226 218 261 262 271 272 281 277 264 272 278 269 283 284 298 407 405 413 415
306 317 323 327 317 327 322 263 261 162 254 259 254 251 238 240 244 248 235 235 237 227 224 219 225 221 268 271 279 272 279 273 259 272 275 268 267 310 280 408 397 402 405 412
297 294 305 322 303 301 300 297 262 252 249 250 245 249 249 249 245 237 234 231 224 231 225 243 257 265 267 278 277 272 272 258 270 277 265 258 288 277 347 411 404 399 394 414
295 290 284 306 293 279 284 285 289 276 245 252 255 258 241 237 235 228 229 233 226 243 262 267 268 275 274 276 269 267 256 268 263 259 254 277 319 283 431 418 409 396 384 412
Wind_Speed
74 80 70 61 74 78 75 77 73 75 77 73 80 83 85 80 81 84 85 91 93 94 96 94 97 104 105 99 65 108 117 119 73 114 102 88 118 129 130 140 144 145 147 145
81 85 84 79 73 77 83 83 77 84 80 85 83 85 89 87 88 91 90 94 94 92 99 98 95 106 98 106 99 114 92 110 120 124 116 100 131 139 141 143 143 131 155 147
88 75 90 83 91 85 64 87 76 74 72 90 86 91 63 91 92 89 95 94 89 101 78 76 88 92 85 71 98 90 111 117 113 117 124 87 136 134 140 146 151 145 143 149
90 77 86 94 76 78 94 80 94 92 62 69 80 94 78 92 87 91 77 83 87 98 89 88 108 108 103 107 119 122 99 101 130 131 131 121 129 136 145 141 150 152 145 140
97 96 98 100 102 96 98 102 99 78 88 81 96 96 98 52 72 96 72 102 104 105 103 106 78 115 110 95 124 125 126 127 128 120 113 119 137 138 145 145 152 152 145 148
89 65 107 78 95 91 105 104 102 97 100 102 91 97 84 82 91 80 100 96 107 78 109 94 111 85 119 122 104 123 130 125 129 132 131 129 132 133 142 153 151 142 145 140
111 107 118 106 101 106 91 108 99 109 92 102 104 104 108 103 101 78 93 103 106 107 108 92 89 94 117 82 112 109 116 119 134 134 138 144 141 141 147 149 154 144 144 139
89 110 115 116 108 107 87 94 116 111 107 108 82 107 105 105 95 101 105 99 82 105 95 91 102 73 100 115 118 123 121 104 126 118 117 130 141 143 151 150 128 147 140 134
94 90 102 113 113 112 113 116 121 119 124 113 111 109 105 109 103 113 110 103 104 102 106 107 100 114 110 113 118 95 129 130 135 135 130 142 142 145 151 149 146 145 135 129
103 95 103 88 112 115 101 119 122 125 122 126 122 94 107 112 112 104 109 104 107 108 111 105 110 115 104 99 91 127 109 119 127 135 137 140 141 145 149 145 145 135 130 125
106 97 110 97 101 106 121 122 96 116 131 130 130 106 110 94 102 107 109 101 105 106 106 100 102 104 107 120 123 119 126 119 131 127 135 138 147 142 142 145 138 133 129 122
115 113 109 105 103 109 103 103 124 130 130 129 132 135 134 78 129 117 112 116 113 103 68 117 118 125 121 95 111 124 112 128 127 138 143 147 134 142 140 146 134 131 122 119
117 104 117 111 118 108 96 106 115 125 125 131 135 134 105 135 139 138 130 70 116 116 111 101 113 113 112 118 123 113 127 134 133 125 145 142 144 127 142 133 131 125 119 115
120 121 111 101 88 95 101 94 113 55 124 118 132 135 132 133 135 134 133 127 84 89 107 112 114 118 111 115 123 124 130 131 126 141 139 131 149 136 144 132 124 118 116 111
126 127 108 98 110 108 108 106 121 121 128 130 131 134 135 137 137 137 136 131 115 120 114 111 115 112 116 112 123 128 128 127 131 141 127 124 120 140 127 121 116 114 114 112
103 118 117 116 105 112 91 101 116 118 120 126 129 130 132 135 138 135 132 91 128 122 114 120 109 110 117 117 120 121 132 127 139 135 133 134 138 121 119 113 112 111 111 109
82 60 71 102 97 96 91 95 107 111 120 128 130 125 133 135 136 130 126 135 131 124 118 120 119 120 111 124 112 128 131 131 120 131 135 127 133 114 113 109 109 108 108 105
54 58 62 85 72 85 79 99 98 109 112 124 128 122 135 138 137 134 135 125 130 114 104 103 100 120 114 119 125 128 111 128 136 133 133 119 118 112 107 107 106 108 105 35
49 52 62 70 76 75 93 94 97 106 110 56 117 120 130 134 132 130 128 131 115 114 108 112 104 114 127 118 128 128 130 123 128 129 125 114 108 104 105 106 104 106 105 36
46 55 62 62 80 72 88 89 96 102 104 107 111 117 125 131 131 127 126 130 132 127 127 119 123 132 118 129 118 124 113 126 128 119 108 103 101 101 103 103 107 102 38 35
38 46 62 64 55 65 82 93 93 95 97 104 107 111 115 117 120 123 123 125 127 105 127 125 118 122 125 106 121 117 126 115 112 108 102 99 99 100 101 103 102 90 35 34
39 53 81 60 82 89 91 92 72 61 63 101 104 104 106 108 112 113 110 102 118 115 117 115 122 120 119 115 110 119 110 106 98 98 95 96 99 100 97 102 99 45 33 32
41 45 50 58 67 89 77 72 92 97 96 92 99 98 100 103 105 104 108 109 109 113 116 114 113 110 107 105 110 106 101 94 92 91 92 95 97 94 102 96 53 45 30 30
43 44 46 54 58 54 86 93 96 92 55 92 94 102 99 101 103 103 105 106 107 106 105 104 101 103 101 102 100 94 90 85 87 89 92 93 94 97 95 96 50 44 34 27
35 35 37 41 51 53 67 92 98 56 97 103 97 95 85 88 91 89 89 93 94 92 93 93 100 101 90 88 83 84 80 83 85 89 90 91 93 99 95 54 51 43 35 26
31 31 29 33 43 50 58 74 101 96 98 97 90 93 90 86 79 80 83 84 81 86 90 95 91 84 82 77 77 76 79 81 85 87 87 90 95 92 80 50 47 41 36 24
27 31 34 29 40 46 49 55 65 92 85 95 95 86 68 67 70 70 75 82 81 91 83 76 75 73 71 71 72 74 76 81 81 82 86 90 96 94 48 46 42 38 35 23
Wind_Direction
265 274 268 277 268 272 272 277 281 283 281 297 285 299 290 290 291 293 304 305 304 303 303 312 311 310 313 316 319 320 316 318 327 326 334 330 332 331 333 333 333 334 335 335
280 265 280 267 268 266 271 278 285 292 284 289 287 289 292 290 295 298 297 300 300 307 306 309 309 309 316 314 313 315 318 324 322 321 325 325 329 328 330 329 332 336 333 333
263 281 282 272 283 277 283 279 273 284 286 288 292 290 300 294 297 300 298 301 308 300 314 316 313 314 323 308 317 326 317 323 325 327 327 321 325 329 332 331 331 334 332 334
269 270 279 270 277 279 268 281 279 279 289 291 288 283 289 292 298 298 300 303 306 303 308 310 307 310 310 313 313 314 324 319 318 320 322 328 329 330 331 332 331 331 332 334
257 252 260 263 265 261 272 268 278 281 286 289 281 278 284 294 297 290 298 290 296 299 303 303 315 305 307 309 310 311 312 315 316 324 330 323 325 330 330 332 332 332 332 333
259 281 270 277 266 278 264 268 272 271 274 277 287 281 289 289 293 295 294 294 293 306 300 304 303 309 305 308 315 313 313 316 317 319 322 325 328 329 329 329 331 331 332 335
265 266 267 262 265 264 269 265 269 268 274 273 273 277 279 282 287 296 294 293 294 294 295 304 309 309 308 314 312 317 318 315 315 318 320 321 322 326 326 329 329 331 333 336
263 266 267 269 265 268 278 277 270 275 270 271 284 272 277 280 285 289 287 292 297 293 296 300 302 309 311 310 311 311 317 317 320 324 323 325 324 325 326 328 330 330 333 335
269 266 263 267 269 269 268 265 267 269 271 273 272 270 277 274 283 283 284 288 290 295 295 297 301 301 307 309 310 317 314 316 318 319 324 321 324 326 328 328 329 330 333 335
270 272 269 263 264 267 272 268 268 270 272 273 275 281 271 274 275 281 283 286 288 290 293 298 300 301 308 311 310 309 318 318 318 319 320 322 324 326 328 330 329 331 333 335
270 265 269 271 268 259 266 270 273 270 272 275 275 280 282 278 278 278 281 285 286 290 295 297 302 303 305 305 306 311 312 316 316 319 321 323 324 327 328 329 330 331 332 334
259 258 259 260 270 270 258 271 266 268 270 272 273 275 277 289 281 279 280 282 285 288 305 294 295 298 300 309 310 308 314 313 316 318 320 320 325 326 328 329 330 330 332 334
259 258 266 261 266 258 266 270 270 264 268 269 271 273 280 277 279 281 283 295 284 287 289 295 295 298 301 303 305 310 311 312 316 319 318 321 322 327 327 328 329 330 332 333
261 260 255 255 259 263 255 270 271 275 269 267 270 273 276 277 278 280 281 283 294 291 291 292 294 296 299 303 305 308 310 312 317 316 318 322 321 326 326 328 328 330 331 332
259 260 260 255 258 251 254 250 259 255 258 262 265 268 271 274 276 278 281 283 288 290 292 293 294 296 299 303 304 308 310 313 315 315 320 322 326 324 326 327 329 330 330 330
257 257 256 255 253 257 257 252 251 255 252 258 264 264 270 272 274 278 282 289 286 290 292 293 295 299 301 303 307 310 311 314 314 316 319 320 321 324 326 328 329 329 330 330
254 243 238 247 250 249 246 246 246 249 253 254 260 264 267 268 270 277 283 283 285 289 291 294 298 300 303 304 309 310 311 313 317 318 318 320 322 324 326 328 329 328 330 330
243 244 231 249 231 257 232 243 243 246 247 252 259 266 266 267 269 272 275 282 284 290 295 298 301 301 304 306 308 309 313 313 313 315 316 321 321 323 326 328 328 329 330 318
228 236 224 225 213 233 243 237 241 244 248 258 256 257 260 266 269 273 277 279 287 290 294 295 300 301 301 307 306 307 309 313 315 315 318 320 322 326 325 328 327 331 330 318
223 227 225 226 213 248 230 233 238 243 247 252 255 257 260 263 267 272 276 278 279 283 287 292 296 295 302 303 307 308 313 313 314 316 318 321 325 325 325 326 329 329 318 319
226 227 262 224 263 248 232 233 235 241 248 252 255 258 262 267 270 272 274 277 280 286 285 290 295 299 301 307 306 310 310 313 315 315 318 323 324 325 326 326 329 330 317 318
226 225 251 225 218 221 227 232 240 246 260 252 255 259 263 266 269 273 277 280 281 285 289 294 295 298 301 303 309 311 311 313 315 317 321 322 326 326 326 331 329 327 316 316
228 229 229 228 226 224 236 243 238 242 247 255 255 260 263 265 269 275 277 281 283 286 289 292 296 298 301 307 308 310 311 313 316 320 322 326 325 325 330 328 330 328 314 314
226 229 229 229 227 234 233 233 238 246 253 252 256 257 260 262 266 272 278 282 284 287 290 294 298 301 306 305 308 309 311 316 319 321 325 326 325 327 329 331 330 327 320 311
230 232 233 232 229 228 228 235 238 258 247 250 254 258 265 267 271 274 277 280 283 288 292 296 298 302 303 306 310 310 316 318 320 325 326 324 325 332 331 330 328 325 321 310
224 224 228 228 225 227 230 231 232 241 245 250 256 260 265 270 273 274 277 281 287 290 294 295 297 300 304 308 311 315 317 320 324 325 325 324 330 331 333 327 325 324 321 307
219 219 220 220 219 224 227 232 236 238 250 251 258 261 265 270 273 277 283 286 291 289 291 295 299 303 306 311 314 317 320 323 324 325 324 329 333 333 327 325 323 321 320 305